Meteopurmerend
purmerend
Purmerend - Baaienwijk



My webcam  My webcam


waarschuwing voor Onweer Meer informatie blitzortung!


Regen radar Meer informatie rain snow radar


Bezoek onze andere website:

CandyAppleRed WebdesignWebdesign Purmerend Candy Apple Red

MeteopurmerendBlog

Template documentation
and downloads



Onweer van: 26-07-2021 13:00 tot: 21:00 waarschuwing voor: Onweer niveau: Geel info button
Enkele onweersbuien, lokaal met hagel en veel neerslag in korte tijd.Kans op blikseminslag, hagel en veel neerslag in korte tijd.Verkeer en buitenactiviteiten kunnen hinder ondervinden.Mijd open water en open gebied, schuil niet onder bomen.Volg weerberichten en waarschuwingen.

15 daagse weersverwachting Wels (AT)

  • Overzicht
  • Per uur
  • 15 dagen
  • Extra
  • Vergelijk
  • Kaarten
  • Dagkaart
  • Meer »
  • Info
  • Statistieken
  • Directe link
    Temp 6h Neerslag Wind  
 05:34     20:48    Daglengte: 15:14 Vandaag
20:00
24°
 
2
 05:35     20:46    Daglengte: 15:11 Morgen
02:00
20°
9.1 mm
3
08:00
20°
 
3
14:00
26°
 
1
20:00
25°
 
2
 05:37     20:45    Daglengte: 15:08 Woensdag 28 Jul
02:00
20°
 
2
08:00
20°
 
2
14:00
25°
15.7 mm
4
20:00
20°
78.5 mm
2
 05:38     20:44    Daglengte: 15:06 Donderdag 29 Jul
02:00
17°
17.0 mm
1
08:00
17°
 
1
Locatie info
Region: Oberösterreich
Latitude: 48.1568°N
Longitude: 14.0221°E
317 masl
Postcode: 4600
Temp/Neerslag /Baro Onweer/Dauwpunt
    Temp Baro 1h Neerslag Dauwpunt Wind UV Bewolking  
 05:34     20:48    Daglengte: 15:14 Vandaag
16:00
27°
1010.7 hPa
25%
18.8°
2
Windvlaag: 3.7 m/s
29%
17:00
27°
1010.1 hPa
40%
19.6°
2
Windvlaag: 4.9 m/s
31%
18:00
25°
1010.4 hPa
80%
19.9°
4
Windvlaag: 7.2 m/s
33%
19:00
25°
1010.7 hPa
82%
19.5°
1
Windvlaag: 2.9 m/s
32%
20:00
24°
1011.0 hPa
66%
20.8°
2
Windvlaag: 2.1 m/s
29%
21:00
23°
1011.6 hPa
49%
20.5°
3
Windvlaag: 2.9 m/s
64%
22:00
22°
1012.3 hPa
22%
19.6°
2
Windvlaag: 3.5 m/s
54%
23:00
21°
1012.8 hPa 9.1 mm
80%
19.4°
2
Windvlaag: 2.7 m/s
34% warningclass
 05:35     20:46    Daglengte: 15:11 Morgen
00:00
21°
1013.4 hPa
77%
19.3°
2
Windvlaag: 1.8 m/s
49%
01:00
20°
1013.9 hPa
37%
19.0°
3
Windvlaag: 1.5 m/s
47%
02:00
20°
1014.1 hPa
15%
18.4°
3
Windvlaag: 1.3 m/s
60%
03:00
19°
1014.4 hPa
14%
18.3°
3
Windvlaag: 0.1 m/s
47%
04:00
19°
1014.6 hPa
14%
18.2°
2
Windvlaag: -0.6 m/s
53%
05:00
19°
1014.8 hPa
22%
17.9°
2
Windvlaag: 0.6 m/s
57%
06:00
19°
1015.3 hPa
27%
18.0°
2
Windvlaag: 0 m/s
82%
07:00
19°
1015.6 hPa
23%
18.0°
2
Windvlaag: 1.1 m/s
22%
08:00
20°
1015.9 hPa
17%
18.5°
3
Windvlaag: 1.2 m/s
18%
09:00
21°
1016.0 hPa
17%
18.6°
3
Windvlaag: 0.8 m/s
80%
10:00
21°
1016.0 hPa
17%
18.8°
2
Windvlaag: 0.6 m/s
84%
11:00
22°
1015.7 hPa
14%
18.6°
2
Windvlaag: -1.1 m/s
31%
12:00
24°
1015.6 hPa
14%
17.8°
1
Windvlaag: -2.8 m/s
15%
13:00
24°
1014.7 hPa
14%
17.3°
1
Windvlaag: -3.1 m/s
15%
14:00
26°
1013.9 hPa
14%
17.6°
1
Windvlaag: -1.3 m/s
15%
15:00
26°
1013.4 hPa
17%
17.9°
1
Windvlaag: -0.7 m/s
14%
16:00
27°
1012.9 hPa
14%
17.9°
1
Windvlaag: -0.1 m/s
8%
17:00
27°
1012.7 hPa
14%
18.2°
1
Windvlaag: -1.4 m/s
40%
18:00
27°
1012.6 hPa
14%
18.3°
1
Windvlaag: -2.2 m/s
14%
19:00
26°
1012.5 hPa
14%
18.1°
1
Windvlaag: -1.4 m/s
23%
20:00
25°
1012.8 hPa
14%
18.4°
2
Windvlaag: 0.6 m/s
22%
21:00
24°
1013.1 hPa
14%
19.6°
2
Windvlaag: 0.3 m/s
45%
22:00
23°
1013.6 hPa
14%
19.1°
2
Windvlaag: -0.1 m/s
44%
23:00
22°
1013.9 hPa
14%
19.0°
2
Windvlaag: 1.1 m/s
54%
 05:37     20:45    Daglengte: 15:08 Woensdag 28 Jul
00:00
21°
1014.0 hPa
14%
19.2°
2
Windvlaag: 1.5 m/s
59%
01:00
20°
1013.6 hPa
14%
18.9°
2
Windvlaag: 1.8 m/s
64%
02:00
20°
1013.4 hPa
14%
18.6°
2
Windvlaag: 2.2 m/s
72%
03:00
19°
1013.4 hPa
14%
18.3°
1
Windvlaag: 2.6 m/s
60%
04:00
19°
1013.2 hPa
14%
18.1°
1
Windvlaag: 0.8 m/s
54%
05:00
19°
1013.2 hPa
14%
18.0°
1
Windvlaag: 0.8 m/s
45%
06:00
18°
1013.3 hPa
16%
17.8°
1
Windvlaag: 0.8 m/s
35%
07:00
19°
1014.3 hPa
82%
18.0°
2
Windvlaag: 0.9 m/s
80% warningclass
08:00
20°
1014.7 hPa
82%
18.2°
2
Windvlaag: -0.1 m/s
79%
09:00
21°
1015.1 hPa
82%
17.9°
3
Windvlaag: -1.2 m/s
77%
10:00
22°
1015.1 hPa
78%
17.4°
3
Windvlaag: -1.1 m/s
66%
11:00
23°
1014.2 hPa
82%
16.1°
3
Windvlaag: -0.8 m/s
65%
12:00
24°
1014.4 hPa 15.7 mm
95%
16.4°
4
Windvlaag: -0.9 m/s
68%
13:00
24°
1014.1 hPa
33%
16.4°
4
Windvlaag: -1 m/s
69%
14:00
25°
1013.8 hPa
37%
15.8°
4
Windvlaag: -0.7 m/s
70%
15:00
24°
1013.8 hPa
94%
15.2°
5
Windvlaag: -1.4 m/s
97%
16:00
22°
1014.3 hPa 16.7 mm
97%
18.0°
5
Windvlaag: -0.7 m/s
97%
17:00
21°
1014.8 hPa 10.3 mm
100%
17.2°
5
Windvlaag: 0.1 m/s
96%
18:00
20°
1015.0 hPa 17.2 mm
100%
16.2°
3
Windvlaag: 0.4 m/s
94%
19:00
20°
1015.3 hPa 17.4 mm
95%
15.1°
3
Windvlaag: 1.5 m/s
93%
20:00
20°
1015.5 hPa 16.9 mm
35%
15.5°
2
Windvlaag: -0.2 m/s
85%
21:00
19°
1015.7 hPa 17.0 mm
21%
15.8°
2
Windvlaag: 0.7 m/s
40%
22:00
18°
1015.8 hPa
21%
15.5°
1
Windvlaag: 1.3 m/s
37%
23:00
17°
1015.7 hPa
21%
15.4°
1
Windvlaag: 1.7 m/s
45%
 05:38     20:44    Daglengte: 15:06 Donderdag 29 Jul
00:00
17°
1015.8 hPa
21%
14.9°
2
Windvlaag: -1.4 m/s
20%
01:00
17°
1015.5 hPa
21%
14.0°
1
Windvlaag: -1.9 m/s
16%
02:00
17°
1015.2 hPa
21%
14.4°
1
Windvlaag: -1.2 m/s
19%
03:00
16°
1015.0 hPa
21%
13.8°
1
Windvlaag: 1.2 m/s
21%
04:00
16°
1015.0 hPa
21%
13.4°
1
Windvlaag: 1.1 m/s
31%
05:00
16°
1015.0 hPa
21%
13.3°
1
Windvlaag: 0.9 m/s
56%
06:00
16°
1015.0 hPa
21%
13.5°
1
Windvlaag: 0.6 m/s
61%
07:00
16°
1015.1 hPa
21%
12.4°
1
Windvlaag: 0.5 m/s
55%
08:00
17°
1015.1 hPa
21%
12.3°
1
Windvlaag: 1.5 m/s
44%
09:00
19°
1015.5 hPa
21%
12.3°
1
Windvlaag: 3.6 m/s
11%
10:00
21°
1015.1 hPa
21%
12.9°
1
Windvlaag: 3.4 m/s
9%
11:00
23°
1014.9 hPa
21%
13.4°
1
Windvlaag: 1.9 m/s
7%
12:00
24°
1014.5 hPa
21%
13.6°
1
Windvlaag: 3.6 m/s
3%
13:00
25°
1014.1 hPa
21%
13.4°
3
Windvlaag: 4.4 m/s
1%
14:00
26°
1013.6 hPa
21%
13.7°
3
Windvlaag: 5.2 m/s
6%
Temp/Neerslag /Baro Onweer/Dauwpunt
    Temp Baro Neerslag Dauwpunt Wind Bewolking  
 05:34     20:48    Daglengte: 15:14 Vandaag
17:00
27°
1010.1 hPa   19.6°
2
31%
20:00
24°
1011.0 hPa   20.8°
2
29%
23:00
21°
1012.8 hPa 9.1 mm 19.4°
2
34% warningclass
 05:35     20:46    Daglengte: 15:11 Morgen
02:00
20°
1014.1 hPa   18.4°
3
60%
05:00
19°
1014.8 hPa   17.9°
2
57%
08:00
20°
1015.9 hPa   18.5°
3
18%
11:00
22°
1015.7 hPa   18.6°
2
31%
14:00
26°
1013.9 hPa   17.6°
1
15%
17:00
27°
1012.7 hPa   18.2°
1
40%
20:00
25°
1012.8 hPa   18.4°
2
22%
23:00
22°
1013.9 hPa   19.0°
2
54%
 05:37     20:45    Daglengte: 15:08 Woensdag 28 Jul
02:00
20°
1013.4 hPa   18.6°
2
72%
05:00
19°
1013.2 hPa   18.0°
1
45%
08:00
20°
1014.7 hPa   18.2°
2
79%
11:00
23°
1014.2 hPa   16.1°
3
65%
14:00
25°
1013.8 hPa 15.7 mm 15.8°
4
70%
17:00
21°
1014.8 hPa 27.0 mm 17.2°
5
96%
20:00
20°
1015.5 hPa 51.5 mm 15.5°
2
85%
23:00
17°
1015.7 hPa 17.0 mm 15.4°
1
45%
 05:38     20:44    Daglengte: 15:06 Donderdag 29 Jul
02:00
17°
1015.2 hPa   14.4°
1
19%
05:00
16°
1015.0 hPa   13.3°
1
56%
08:00
17°
1015.1 hPa   12.3°
1
44%
11:00
23°
1014.9 hPa   13.4°
1
7%
14:00
26°
1013.6 hPa   13.7°
3
6%
17:00
27°
1012.6 hPa 24.5 mm 15.4°
0
0%
20:00
23°
1012.8 hPa 24.6 mm 17.6°
1
0%
23:00
18°
1014.0 hPa 24.6 mm 16.7°
2
0%
 05:39     20:42    Daglengte: 15:03 Vrijdag 30 Jul
02:00
17°
1013.9 hPa 25.3 mm 16.4°
1
0%
05:00
17°
1013.6 hPa 25.9 mm 16.3°
1
1%
08:00
18°
1014.2 hPa 28.9 mm 17.1°
1
1%
11:00
19°
1014.6 hPa 29.5 mm 16.1°
2
1%
14:00
23°
1012.7 hPa 29.5 mm 16.2°
1
1%
17:00
25°
1011.1 hPa 29.6 mm 17.0°
0
0%
20:00
22°
1010.2 hPa 29.6 mm 17.8°
1
0%
23:00
19°
1010.5 hPa 29.6 mm 16.3°
0
0%
 05:40     20:41    Daglengte: 15:01 Zaterdag 31 Jul
02:00
19°
1010.1 hPa 29.6 mm 15.7°
1
1%
05:00
17°
1010.8 hPa 33.9 mm 16.7°
2
1%
08:00
18°
1011.1 hPa 36.0 mm 17.2°
1
1%
11:00
22°
1010.2 hPa 36.3 mm 18.3°
0
1%
14:00
26°
1009.1 hPa 36.4 mm 17.0°
2
1%
17:00
23°
1008.7 hPa 37.8 mm 19.1°
3
1%
20:00
21°
1009.4 hPa 40.4 mm 18.2°
2
1%
23:00
18°
1011.4 hPa 44.6 mm 17.6°
4
1%
 05:42     20:39    Daglengte: 14:57 Zondag 01 Aug
02:00
17°
1012.0 hPa 54.6 mm 16.3°
1
1%
05:00
15°
1011.5 hPa 59.2 mm 14.6°
4
1%
08:00
14°
1012.3 hPa 67.3 mm 13.7°
1
1%
11:00
15°
1010.5 hPa 67.7 mm 13.6°
2
1%
14:00
14°
1012.2 hPa 72.6 mm 13.2°
4
1%
17:00
13°
1013.7 hPa 79.8 mm 12.1°
4
1%
20:00
13°
1012.6 hPa 80.3 mm 12.0°
1
1%
23:00
11°
1014.0 hPa 80.3 mm 10.1°
1
1%
 05:43     20:38    Daglengte: 14:55 Maandag 02 Aug
02:00
12°
1014.4 hPa 80.3 mm 10.2°
2
1%
05:00
12°
1015.1 hPa 80.3 mm 10.8°
4
0%
08:00
15°
1016.4 hPa 80.3 mm 12.7°
4
0%
11:00
18°
1016.7 hPa 80.3 mm 11.7°
5
0%
14:00
20°
1016.1 hPa 160.6 mm 11.8°
5
0%
20:00
17°
1016.5 hPa 160.8 mm 12.8°
2
0%
 05:44     20:36    Daglengte: 14:52 Dinsdag 03 Aug
02:00
14°
1018.2 hPa 160.8 mm 11.1°
1
1%
08:00
15°
1018.4 hPa 160.8 mm 11.3°
1
1%
14:00
19°
1017.9 hPa 162.0 mm 15.7°
1
1%
20:00
17°
1018.4 hPa 164.3 mm 15.0°
3
1%
 05:46     20:35    Daglengte: 14:49 Woensdag 04 Aug
02:00
13°
1019.7 hPa 165.6 mm 11.9°
0
0%
08:00
16°
1018.8 hPa 165.6 mm 13.7°
1
0%
14:00
25°
1016.0 hPa 165.6 mm 15.7°
1
0%
20:00
22°
1013.8 hPa 165.6 mm 15.8°
1
0%
 05:47     20:33    Daglengte: 14:46 Donderdag 05 Aug
02:00
18°
1014.5 hPa 165.8 mm 14.3°
1
1%
08:00
19°
1013.7 hPa 167.5 mm 16.2°
1
1%
14:00
24°
1014.5 hPa 0.8 mm 14.7°
2
70%
20:00
19°
1014.4 hPa 2.0 mm 15.3°
1
69%
 05:48     20:32    Daglengte: 14:44 Vrijdag 06 Aug
02:00
16°
1015.2 hPa 1.1 mm 13.8°
1
70%
08:00
16°
1015.0 hPa 0.7 mm 14.2°
1
76%
14:00
21°
1013.8 hPa 2.0 mm 14.8°
2
73%
20:00
18°
1014.0 hPa 3.5 mm 14.6°
2
67%
 05:50     20:30    Daglengte: 14:40 Zaterdag 07 Aug
02:00
15°
1015.6 hPa 3.1 mm 13.4°
2
71%
08:00
16°
1015.5 hPa 1.6 mm 13.7°
2
81%
14:00
20°
1014.3 hPa 2.5 mm 14.1°
2
79%
20:00
17°
1014.7 hPa 2.1 mm 14.0°
2
64%
 05:51     20:29    Daglengte: 14:38 Zondag 08 Aug
02:00
14°
1016.5 hPa 1.5 mm 12.4°
2
69%
08:00
15°
1016.5 hPa 0.7 mm 12.9°
1
64%
14:00
21°
1015.3 hPa 0.5 mm 13.7°
2
69%
20:00
18°
1015.9 hPa 0.5 mm 14.0°
1
57%
 05:52     20:27    Daglengte: 14:35 Maandag 09 Aug
02:00
14°
1017.9 hPa 0.5 mm 12.5°
1
59%
08:00
16°
1018.2 hPa 0.6 mm 13.2°
1
64%
14:00
22°
1017.4 hPa 1.2 mm 14.0°
2
57%
20:00
19°
1017.9 hPa 1.4 mm 14.7°
1
37%
 05:54     20:25    Daglengte: 14:31 Dinsdag 10 Aug
02:00
15°
1019.9 hPa 0.7 mm 12.8°
1
38%
08:00
16°
1019.8 hPa 0.5 mm 13.5°
1
44%
14:00
23°
1018.4 hPa 0.8 mm 14.1°
1
48%
  CAPE Lifted Index Hail Supercell Tornado SRH 3km CL BTM PRES CL TOP PRES Swiss DWD icon SMHI TS
 05:34     20:48    Daglengte: 15:14 Vandaag
16:00 1848 J/kg -7.6 K 0 % 0 % 0 % 0 m²/s² 0 0 -7.03 3
17:00 1780 J/kg -8.0 K 0 % 0 % 0 % 0 m²/s² 0 0 -8 3
18:00 78 J/kg -0.3 K 0 % 0 % 0 % 0 m²/s² 0 0 -0.21 80
19:00 0 J/kg 1.1 K 0 % 0 % 0 % 0 m²/s² 0 0 1.37 80
20:00 0 J/kg -0.2 K 0 % 0 % 0 % 0 m²/s² 0 0 0.34 3
21:00 0 J/kg -0.5 K 0 % 0 % 0 % 0 m²/s² 0 0 -0.47 3
22:00 3 J/kg 0.2 K 0 % 0 % 0 % 0 m²/s² 0 0 0.2 3
23:00 0 J/kg 1.5 K 0 % 0 % 0 % 0 m²/s² 0 0 1.71 95
 05:35     20:46    Daglengte: 15:11 Morgen
00:00 0 J/kg 0.8 K 0 % 0 % 0 % 0 m²/s² 0 0 1.16 3
01:00 0 J/kg 1.3 K 0 % 0 % 0 % 0 m²/s² 0 0 1.57 3
02:00 0 J/kg 1.8 K 0 % 0 % 0 % 0 m²/s² 0 0 2.52 3
03:00 0 J/kg 1.9 K 0 % 0 % 0 % 0 m²/s² 0 0 3.01 3
04:00 0 J/kg 1.5 K 0 % 0 % 0 % 0 m²/s² 0 0 3.18 3
05:00 0 J/kg 1.0 K 0 % 0 % 0 % 0 m²/s² 0 0 2.68 3
06:00 0 J/kg 0.7 K 0 % 0 % 0 % 0 m²/s² 0 0 3.1 3
07:00 0 J/kg 0.7 K 0 % 0 % 0 % 0 m²/s² 0 0 3.4 2
08:00 0 J/kg 0.9 K 0 % 0 % 0 % 0 m²/s² 0 0 4.02 3
09:00 0 J/kg 0.7 K 0 % 0 % 0 % 0 m²/s² 0 0 4 3
10:00 108 J/kg -0.4 K 0 % 0 % 0 % 0 m²/s² 0 0 3.08 3
11:00 268 J/kg -1.1 K 0 % 0 % 0 % 0 m²/s² 0 0 2.65 3
12:00 443 J/kg -1.8 K 0 % 0 % 0 % 0 m²/s² 0 0 1.5 3
13:00 435 J/kg -2.1 K 0 % 0 % 0 % 0 m²/s² 0 0 1.02 3
14:00 410 J/kg -2.1 K 0 % 0 % 0 % 0 m²/s² 0 0 0.09 3
15:00 456 J/kg -2.7 K 0 % 0 % 0 % 0 m²/s² 0 0 -0.57 1
16:00 619 J/kg -3.2 K 0 % 0 % 0 % 0 m²/s² 0 0 -1.22 0
17:00 676 J/kg -4.1 K 0 % 0 % 0 % 0 m²/s² 0 0 -2.54 3
18:00 655 J/kg -4.6 K 0 % 0 % 0 % 0 m²/s² 0 0 -3.43 1
19:00 680 J/kg -4.5 K 0 % 0 % 0 % 0 m²/s² 0 0 -4.23 3
20:00 830 J/kg -3.0 K 0 % 0 % 0 % 0 m²/s² 0 0 -2.97 0
21:00 246 J/kg -3.8 K 0 % 0 % 0 % 0 m²/s² 0 0 -3.11 3
22:00 115 J/kg -4.0 K 0 % 0 % 0 % 0 m²/s² 0 0 -2.65 3
23:00 0 J/kg -3.1 K 0 % 0 % 0 % 0 m²/s² 0 0 -1.42 3
 05:37     20:45    Daglengte: 15:08 Woensdag 28 Jul
00:00 9 J/kg -2.9 K 0 % 0 % 0 % 0 m²/s² 0 0 -2.12 3
01:00 10 J/kg -3.0 K 0 % 0 % 0 % 0 m²/s² 0 0 -2.46 3
02:00 0 J/kg -1.4 K 0 % 0 % 0 % 0 m²/s² 0 0 -0.44 3
03:00 0 J/kg -0.5 K 0 % 0 % 0 % 0 m²/s² 0 0 0.46 3
04:00 0 J/kg -0.4 K 0 % 0 % 0 % 0 m²/s² 0 0 0.47 3
05:00 0 J/kg -0.8 K 0 % 0 % 0 % 0 m²/s² 0 0 0.16 3
06:00 0 J/kg -0.8 K 0 % 0 % 0 % 0 m²/s² 0 0 0.61 3
07:00 0 J/kg -0.4 K 0 % 0 % 0 % 0 m²/s² 0 0 0.83 95
08:00 0 J/kg -0.7 K 0 % 0 % 0 % 0 m²/s² 0 0 0.8 80
09:00 10 J/kg -0.6 K 0 % 0 % 0 % 0 m²/s² 0 0 1.2 80
10:00 336 J/kg -1.5 K 0 % 0 % 0 % 0 m²/s² 0 0 0.87 80
11:00 545 J/kg -2.3 K 0 % 0 % 0 % 0 m²/s² 0 0 0.37 3
12:00 805 J/kg -2.8 K 0 % 0 % 0 % 0 m²/s² 0 0 -0.58 3
13:00 831 J/kg -2.9 K 0 % 0 % 0 % 0 m²/s² 0 0 -1.22 3
14:00 656 J/kg -2.5 K 0 % 0 % 0 % 0 m²/s² 0 0 -1.09 3
15:00 496 J/kg -1.7 K 0 % 0 % 0 % 0 m²/s² 0 0 -1.4 3
16:00 0 J/kg 0.7 K 0 % 0 % 0 % 0 m²/s² 0 0 0.73 80
17:00 0 J/kg 0.6 K 0 % 0 % 0 % 0 m²/s² 0 0 0.69 80
18:00 0 J/kg -0.5 K 0 % 0 % 0 % 0 m²/s² 0 0 0.91 3
19:00 75 J/kg -1.1 K 0 % 0 % 0 % 0 m²/s² 0 0 -0.38 3
20:00 94 J/kg -0.7 K 0 % 0 % 0 % 0 m²/s² 0 0 0.59 3
21:00 0 J/kg -0.2 K 0 % 0 % 0 % 0 m²/s² 0 0 1.81 2
22:00 0 J/kg 0.3 K 0 % 0 % 0 % 0 m²/s² 0 0 2.49 1
23:00 0 J/kg 0.9 K 0 % 0 % 0 % 0 m²/s² 0 0 2.01 1
 05:38     20:44    Daglengte: 15:06 Donderdag 29 Jul
00:00 0 J/kg 0.3 K 0 % 0 % 0 % 0 m²/s² 0 0 0.69 0
01:00 0 J/kg 0.4 K 0 % 0 % 0 % 0 m²/s² 0 0 0.79 2
02:00 0 J/kg 0.2 K 0 % 0 % 0 % 0 m²/s² 0 0 0.23 1
03:00 0 J/kg -0.4 K 0 % 0 % 0 % 0 m²/s² 0 0 0.62 45
04:00 0 J/kg -0.3 K 0 % 0 % 0 % 0 m²/s² 0 0 0.33 45
05:00 0 J/kg -0.6 K 0 % 0 % 0 % 0 m²/s² 0 0 -0.39 45
06:00 0 J/kg -0.6 K 0 % 0 % 0 % 0 m²/s² 0 0 0.18 45
07:00 0 J/kg -0.7 K 0 % 0 % 0 % 0 m²/s² 0 0 0.32 45
08:00 0 J/kg -1.1 K 0 % 0 % 0 % 0 m²/s² 0 0 -0.17 45
09:00 0 J/kg -1.0 K 0 % 0 % 0 % 0 m²/s² 0 0 0.23 2
10:00 0 J/kg -0.9 K 0 % 0 % 0 % 0 m²/s² 0 0 0.45 2
11:00 97 J/kg -1.1 K 0 % 0 % 0 % 0 m²/s² 0 0 0.31 2
12:00 352 J/kg -1.8 K 0 % 0 % 0 % 0 m²/s² 0 0 -0.18 2
13:00 598 J/kg -2.2 K 0 % 0 % 0 % 0 m²/s² 0 0 -0.49 2
14:00 827 J/kg -2.7 K 0 % 0 % 0 % 0 m²/s² 0 0 -1.47 1
Temp Baro Wind Neerslag
  EWN Forecast EWN WRFDA DWD ICON FMI HIRLAM MET Norway GFS
 05:34     20:48    Daglengte: 15:14 Vandaag
17:00 27.0° 1010.1 hPa 2.2 m/s 0.0 mm 26.4° 1005.2 hPa 9.8 m/s 1.2 mm 27.0° 1010.2 hPa 1.2 m/s -2.0 mm 27.6° 1010.6 hPa 2.3 m/s 0.0 mm 26.2° 1010.2 hPa 1.0 m/s
20:00 24.0° 1011.0 hPa 2.1 m/s 0.0 mm 19.5° 1012.0 hPa 3.6 m/s 115.2 mm 21.4° 1012.1 hPa 1.9 m/s 1.3 mm 24.9° 1010.0 hPa 3.4 m/s 0.0 mm 22.1° 1010.7 hPa 2.2 m/s
23:00 21.2° 1012.8 hPa 2.2 m/s 9.1 mm 18.2° 1013.1 hPa 4.1 m/s 128.8 mm 19.5° 1014.2 hPa 1.7 m/s 0.8 mm 21.7° 1012.3 hPa 4.1 m/s 0.0 mm 18.2° 1013.8 hPa 2.6 m/s
 05:35     20:46    Daglengte: 15:11 Morgen
02:00 19.7° 1014.1 hPa 3.2 m/s 0.0 mm 17.4° 1013.6 hPa 3.8 m/s 133.0 mm 19.0° 1014.8 hPa 3.0 m/s 0.0 mm 20.2° 1013.4 hPa 3.1 m/s 0.0 mm 17.8° 1015.7 hPa 2.3 m/s
05:00 18.9° 1014.8 hPa 2.0 m/s 0.0 mm 14.4° 1013.8 hPa 2.2 m/s 136.3 mm 18.2° 1015.5 hPa 1.4 m/s 0.0 mm 19.5° 1014.4 hPa 2.5 m/s 0.0 mm 16.1° 1015.6 hPa 2.2 m/s
08:00 20.0° 1015.9 hPa 2.7 m/s 0.0 mm 17.9° 1015.7 hPa 3.3 m/s 136.3 mm 19.6° 1016.7 hPa 2.5 m/s 0.0 mm 20.3° 1015.1 hPa 3.6 m/s 0.0 mm 18.3° 1016.4 hPa 1.3 m/s
11:00 22.4° 1015.7 hPa 1.7 m/s 0.0 mm 21.7° 1015.5 hPa 1.4 m/s 136.3 mm 21.7° 1016.8 hPa 1.7 m/s 0.0 mm 23.1° 1015.0 hPa 2.0 m/s 0.0 mm 22.1° 1015.9 hPa 0.8 m/s
14:00 25.5° 1013.9 hPa 1.1 m/s 0.0 mm 25.5° 1014.4 hPa 0.9 m/s 136.3 mm 25.0° 1015.2 hPa 1.0 m/s 0.0 mm 25.7° 1013.5 hPa 1.1 m/s 0.0 mm 25.1° 1014.0 hPa 1.7 m/s
17:00 26.7° 1012.7 hPa 1.3 m/s 0.0 mm 27.1° 1012.7 hPa 1.2 m/s 136.3 mm 26.4° 1013.4 hPa 1.9 m/s 0.0 mm 26.6° 1012.6 hPa 1.2 m/s 0.0 mm 26.0° 1012.3 hPa 2.1 m/s
20:00 25.2° 1012.8 hPa 1.7 m/s 0.0 mm 24.8° 1012.1 hPa 2.5 m/s 136.5 mm 25.0° 1013.4 hPa 0.5 m/s 0.0 mm 25.3° 1012.8 hPa 2.0 m/s 0.0 mm 23.1° 1011.5 hPa 1.4 m/s
23:00 21.8° 1013.9 hPa 2.0 m/s 0.0 mm 19.6° 1012.5 hPa 2.9 m/s 140.7 mm 20.8° 1014.1 hPa 0.9 m/s 0.0 mm 22.3° 1014.4 hPa 2.0 m/s 0.0 mm 18.5° 1013.8 hPa 2.7 m/s
 05:37     20:45    Daglengte: 15:08 Woensdag 28 Jul
02:00 19.8° 1013.4 hPa 2.0 m/s 0.0 mm 18.5° 1013.8 hPa 5.2 m/s 141.0 mm 18.4° 1013.0 hPa 0.6 m/s 0.0 mm 20.0° 1014.8 hPa 1.9 m/s 0.0 mm 18.0° 1014.9 hPa 4.9 m/s
05:00 18.5° 1013.2 hPa 1.4 m/s 0.0 mm 16.3° 1013.7 hPa 2.4 m/s 141.0 mm 18.1° 1012.6 hPa 0.8 m/s 0.0 mm 18.6° 1015.5 hPa 1.3 m/s 0.0 mm 17.0° 1015.0 hPa 1.5 m/s
08:00 20.1° 1014.7 hPa 2.5 m/s 0.0 mm 19.1° 1013.3 hPa 2.2 m/s 141.0 mm 18.1° 1014.9 hPa 2.7 m/s 3.3 mm 20.5° 1015.8 hPa 1.2 m/s 0.0 mm 19.1° 1014.5 hPa 0.3 m/s
11:00 22.9° 1014.2 hPa 3.3 m/s 0.0 mm 24.0° 1013.7 hPa 3.6 m/s 141.0 mm 20.7° 1015.3 hPa 2.7 m/s 1.0 mm 23.1° 1013.8 hPa 1.7 m/s
14:00 24.5° 1013.8 hPa 4.1 m/s 15.7 mm 25.5° 1012.7 hPa 4.8 m/s 141.0 mm 23.9° 1014.2 hPa 2.8 m/s 0.1 mm 23.4° 1014.3 hPa 6.2 m/s
17:00 20.5° 1014.8 hPa 4.6 m/s 27.0 mm 19.7° 1013.7 hPa 4.6 m/s 146.2 mm 20.2° 1015.9 hPa 4.5 m/s 1.1 mm 18.0° 1016.5 hPa 4.7 m/s
20:00 19.8° 1015.5 hPa 1.9 m/s 51.5 mm 21.3° 1013.4 hPa 0.4 m/s 149.8 mm 19.2° 1015.7 hPa 2.2 m/s 0.1 mm 16.9° 1017.1 hPa 1.8 m/s
23:00 17.4° 1015.7 hPa 1.4 m/s 17.0 mm 17.0° 1013.8 hPa 2.0 m/s 149.8 mm 17.1° 1015.9 hPa 0.2 m/s 0.0 mm 14.5° 1016.8 hPa 0.2 m/s
 05:38     20:44    Daglengte: 15:06 Donderdag 29 Jul
02:00 16.8° 1015.2 hPa 0.8 m/s 0.0 mm 17.1° 1013.3 hPa 2.0 m/s 149.8 mm 15.2° 1015.9 hPa 0.8 m/s 0.0 mm 13.6° 1016.4 hPa 0.6 m/s
05:00 15.6° 1015.0 hPa 1.0 m/s 0.0 mm 16.1° 1012.6 hPa 2.5 m/s 149.9 mm 13.6° 1016.2 hPa 0.7 m/s 0.0 mm 13.1° 1016.3 hPa 0.6 m/s
08:00 17.3° 1015.1 hPa 0.6 m/s 0.0 mm 20.4° 1012.4 hPa 1.7 m/s 149.9 mm 15.9° 1016.2 hPa 0.4 m/s 0.0 mm 16.2° 1016.3 hPa 0.3 m/s
11:00 22.8° 1014.9 hPa 0.6 m/s 0.0 mm 25.7° 1011.7 hPa 1.7 m/s 149.9 mm 22.1° 1015.7 hPa 0.3 m/s 0.0 mm 21.8° 1015.6 hPa 0.4 m/s
14:00 25.8° 1013.6 hPa 3.1 m/s 0.0 mm 29.0° 1010.6 hPa 2.9 m/s 149.9 mm 25.0° 1014.4 hPa 3.1 m/s 0.0 mm 25.6° 1014.1 hPa 0.9 m/s
17:00 26.6° 1012.6 hPa 0.3 m/s 24.5 mm 26.6° 1012.6 hPa 0.3 m/s 24.5 mm
20:00 22.8° 1012.8 hPa 1.5 m/s 24.6 mm 22.8° 1012.8 hPa 1.5 m/s 24.6 mm
23:00 18.4° 1014.0 hPa 1.9 m/s 24.6 mm 18.4° 1014.0 hPa 1.9 m/s 24.6 mm
 05:39     20:42    Daglengte: 15:03 Vrijdag 30 Jul
02:00 17.2° 1013.9 hPa 1.4 m/s 25.3 mm 17.2° 1013.9 hPa 1.4 m/s 25.3 mm
05:00 17.0° 1013.6 hPa 0.7 m/s 25.9 mm 17.0° 1013.6 hPa 0.7 m/s 25.9 mm
08:00 18.1° 1014.2 hPa 1.0 m/s 28.9 mm 18.1° 1014.2 hPa 1.0 m/s 28.9 mm
11:00 18.8° 1014.6 hPa 2.4 m/s 29.5 mm 18.8° 1014.6 hPa 2.4 m/s 29.5 mm
14:00 23.3° 1012.7 hPa 1.1 m/s 29.5 mm 23.3° 1012.7 hPa 1.1 m/s 29.5 mm
17:00 25.2° 1011.1 hPa 0.4 m/s 29.6 mm 25.2° 1011.1 hPa 0.4 m/s 29.6 mm
20:00 22.0° 1010.2 hPa 1.4 m/s 29.6 mm 22.0° 1010.2 hPa 1.4 m/s 29.6 mm
23:00 18.9° 1010.5 hPa 0.2 m/s 29.6 mm 18.9° 1010.5 hPa 0.2 m/s 29.6 mm
 05:40     20:41    Daglengte: 15:01 Zaterdag 31 Jul
02:00 18.6° 1010.1 hPa 0.6 m/s 29.6 mm 18.6° 1010.1 hPa 0.6 m/s 29.6 mm
05:00 17.3° 1010.8 hPa 1.9 m/s 33.9 mm 17.3° 1010.8 hPa 1.9 m/s 33.9 mm
08:00 18.1° 1011.1 hPa 1.2 m/s 36.0 mm 18.1° 1011.1 hPa 1.2 m/s 36.0 mm
11:00 22.3° 1010.2 hPa 0.2 m/s 36.3 mm 22.3° 1010.2 hPa 0.2 m/s 36.3 mm
14:00 25.7° 1009.1 hPa 1.9 m/s 36.4 mm 25.7° 1009.1 hPa 1.9 m/s 36.4 mm
17:00 23.3° 1008.7 hPa 2.8 m/s 37.8 mm 23.3° 1008.7 hPa 2.8 m/s 37.8 mm
20:00 20.6° 1009.4 hPa 2.0 m/s 40.4 mm 20.6° 1009.4 hPa 2.0 m/s 40.4 mm
23:00 18.3° 1011.4 hPa 4.5 m/s 44.6 mm 18.3° 1011.4 hPa 4.5 m/s 44.6 mm
 05:42     20:39    Daglengte: 14:57 Zondag 01 Aug
02:00 16.8° 1012.0 hPa 1.0 m/s 54.6 mm 16.8° 1012.0 hPa 1.0 m/s 54.6 mm
05:00 15.4° 1011.5 hPa 3.9 m/s 59.2 mm 15.4° 1011.5 hPa 3.9 m/s 59.2 mm
08:00 14.1° 1012.3 hPa 1.2 m/s 67.3 mm 14.1° 1012.3 hPa 1.2 m/s 67.3 mm
11:00 14.7° 1010.5 hPa 1.7 m/s 67.7 mm 14.7° 1010.5 hPa 1.7 m/s 67.7 mm
14:00 14.0° 1012.2 hPa 4.5 m/s 72.6 mm 14.0° 1012.2 hPa 4.5 m/s 72.6 mm
17:00 12.8° 1013.7 hPa 3.9 m/s 79.8 mm 12.8° 1013.7 hPa 3.9 m/s 79.8 mm
20:00 13.4° 1012.6 hPa 0.9 m/s 80.3 mm 13.4° 1012.6 hPa 0.9 m/s 80.3 mm
23:00 11.2° 1014.0 hPa 1.4 m/s 80.3 mm 11.2° 1014.0 hPa 1.4 m/s 80.3 mm
 05:43     20:38    Daglengte: 14:55 Maandag 02 Aug
02:00 11.8° 1014.4 hPa 1.7 m/s 80.3 mm 11.8° 1014.4 hPa 1.7 m/s 80.3 mm
05:00 12.1° 1015.1 hPa 4.0 m/s 80.3 mm 12.1° 1015.1 hPa 4.0 m/s 80.3 mm
08:00 14.9° 1016.4 hPa 3.9 m/s 80.3 mm 14.9° 1016.4 hPa 3.9 m/s 80.3 mm
11:00 17.6° 1016.7 hPa 4.7 m/s 80.3 mm 17.6° 1016.7 hPa 4.7 m/s 80.3 mm
14:00 20.3° 1016.1 hPa 4.6 m/s 80.3 mm 20.3° 1016.1 hPa 4.6 m/s 80.3 mm
20:00 17.4° 1016.5 hPa 2.1 m/s 80.4 mm 17.4° 1016.5 hPa 2.1 m/s 80.4 mm
 05:44     20:36    Daglengte: 14:52 Dinsdag 03 Aug
02:00 13.6° 1018.2 hPa 0.7 m/s 80.4 mm 13.6° 1018.2 hPa 0.7 m/s 80.4 mm
08:00 15.4° 1018.4 hPa 1.1 m/s 80.4 mm 15.4° 1018.4 hPa 1.1 m/s 80.4 mm
14:00 18.6° 1017.9 hPa 1.4 m/s 81.3 mm 18.6° 1017.9 hPa 1.4 m/s 81.3 mm
20:00 17.2° 1018.4 hPa 3.2 m/s 82.8 mm 17.2° 1018.4 hPa 3.2 m/s 82.8 mm
 05:46     20:35    Daglengte: 14:49 Woensdag 04 Aug
02:00 13.3° 1019.7 hPa 0.5 m/s 82.8 mm 13.3° 1019.7 hPa 0.5 m/s 82.8 mm
08:00 15.5° 1018.8 hPa 1.5 m/s 82.8 mm 15.5° 1018.8 hPa 1.5 m/s 82.8 mm
14:00 24.9° 1016.0 hPa 1.3 m/s 82.8 mm 24.9° 1016.0 hPa 1.3 m/s 82.8 mm
20:00 21.9° 1013.8 hPa 1.0 m/s 82.8 mm 21.9° 1013.8 hPa 1.0 m/s 82.8 mm
 05:47     20:33    Daglengte: 14:46 Donderdag 05 Aug
02:00 17.6° 1014.5 hPa 1.5 m/s 83.0 mm 17.6° 1014.5 hPa 1.5 m/s 83.0 mm
08:00 18.9° 1013.7 hPa 1.4 m/s 83.9 mm 18.9° 1013.7 hPa 1.4 m/s 83.9 mm
14:00 23.6° 1014.5 hPa 1.5 m/s 0.8 mm
20:00 19.4° 1014.4 hPa 1.1 m/s 2.0 mm
 05:48     20:32    Daglengte: 14:44 Vrijdag 06 Aug
02:00 15.8° 1015.2 hPa 1.2 m/s 1.1 mm
08:00 16.4° 1015.0 hPa 1.3 m/s 0.7 mm
14:00 21.1° 1013.8 hPa 2.3 m/s 2.0 mm
20:00 17.7° 1014.0 hPa 2.2 m/s 3.5 mm
 05:50     20:30    Daglengte: 14:40 Zaterdag 07 Aug
02:00 14.8° 1015.6 hPa 1.8 m/s 3.1 mm
08:00 15.5° 1015.5 hPa 1.7 m/s 1.6 mm
14:00 20.1° 1014.3 hPa 2.2 m/s 2.5 mm
20:00 17.2° 1014.7 hPa 1.6 m/s 2.1 mm
 05:51     20:29    Daglengte: 14:38 Zondag 08 Aug
02:00 14.2° 1016.5 hPa 1.8 m/s 1.5 mm
08:00 15.3° 1016.5 hPa 1.5 m/s 0.7 mm
14:00 21.1° 1015.3 hPa 2.0 m/s 0.5 mm
20:00 17.7° 1015.9 hPa 1.4 m/s 0.5 mm
 05:52     20:27    Daglengte: 14:35 Maandag 09 Aug
02:00 14.5° 1017.9 hPa 1.5 m/s 0.5 mm
08:00 15.7° 1018.2 hPa 1.2 m/s 0.6 mm
14:00 22.3° 1017.4 hPa 2.0 m/s 1.2 mm
20:00 18.6° 1017.9 hPa 1.1 m/s 1.4 mm
 05:54     20:25    Daglengte: 14:31 Dinsdag 10 Aug
02:00 14.8° 1019.9 hPa 1.4 m/s 0.7 mm
08:00 16.2° 1019.8 hPa 1.1 m/s 0.5 mm
14:00 23.0° 1018.4 hPa 1.4 m/s 0.8 mm
FMI Hirlam - 7.5 km EWN WRFDA - 12 km DWD ICON - 7 km GFS - 25 km Basiskaart






























































Updatetijd (Europe/Amsterdam) Resolutie Lengte Stap
FMI Hirlam 14:00, 20:00, 02:00, 08:00 7.5 km 49h 1h
EWN WRFDA 10:30, 16:30, 22:30, 04:30 12 km 73h 1h
DWD ICON 11:45, 17:45, 23:45, 05:45 7 km 75h 1h
GFS 14:15, 20:15, 02:15, 08:15 25 km 237h 3h
30+ mm
25-30 mm
20-25 mm
15-20 mm
10-15 mm
6-10 mm
4-6 mm
2-4 mm
1-2 mm
0.5-1 mm
0.2-0.5 mm
0.1-0.2 mm
30+ mm
25-30 mm
20-25 mm
15-20 mm
10-15 mm
6-10 mm
4-6 mm
2-4 mm
1-2 mm
0.5-1 mm
0.2-0.5 mm
0.1-0.2 mm
Sneeuwval
Natte sneeuw
Hagel
Vorst
30+ mm
25-30 mm
20-25 mm
15-20 mm
10-15 mm
6-10 mm
4-6 mm
2-4 mm
1-2 mm
0.5-1 mm
0.2-0.5 mm
0.1-0.2 mm
Sneeuwval
Natte sneeuw
Hagel
Vorst
Onweer
50 mm
40 mm
30 mm
26 mm
22 mm
18 mm
14 mm
10 mm
9 mm
8 mm
7 mm
6 mm
5 mm
4.5 mm
4 mm
3.5 mm
3 mm
2.5 mm
2 mm
1.5 mm
1 mm
0.8 mm
0.6 mm
0.4 mm
0.2 mm
0.05 mm
35°
30°
25°
20°
15°
10°
-5°
-10°
-15°
-20°
-25°
-30°
-35°
33> m/s
29 m/s
25 m/s
21 m/s
17 m/s
14 m/s
11 m/s
8 m/s
5 m/s
3 m/s
0 m/s
2600 J/kg
2400 J/kg
2200 J/kg
2000 J/kg
1800 J/kg
1600 J/kg
1400 J/kg
1200 J/kg
1000 J/kg
800 J/kg
600 J/kg
400 J/kg
200 J/kg
70 dBZ
65 dBZ
60 dBZ
55 dBZ
50 dBZ
45 dBZ
40 dBZ
35 dBZ
30 dBZ
25 dBZ
20 dBZ
15 dBZ
10 dBZ
5 dBZ
-1 K
-2 K
-3 K
-4 K
-5 K
-6 K
-7 K
-8 K
-9 K
950 m²/s²
900 m²/s²
850 m²/s²
800 m²/s²
750 m²/s²
700 m²/s²
650 m²/s²
600 m²/s²
550 m²/s²
500 m²/s²
450 m²/s²
400 m²/s²
350 m²/s²
300 m²/s²
250 m²/s²
200 m²/s²
150 m²/s²
100 m²/s²
46 m/s
44 m/s
42 m/s
40 m/s
38 m/s
36 m/s
34 m/s
32 m/s
30 m/s
28 m/s
26 m/s
24 m/s
22 m/s
20 m/s
16 m/s
12 m/s
8 m/s
4 m/s
30 m/s
28 m/s
26 m/s
24 m/s
22 m/s
20 m/s
18 m/s
16 m/s
14 m/s
12 m/s
10 m/s
8 m/s
6 m/s
4 m/s
2 m/s
3.0
2.8
2.6
2.4
2.2
2.0
1.8
1.6
1.4
1.2
1.0
0.8
0.6
0.4
0.2
15
14
13
12
11
10
9
8
7
6
5
4
3
2
1
90%
80%
70%
60%
50%
40%
30%
20%
10%
42
40
38
36
34
32
30
28
26
24
22
20
18
16
14
12